SM6PGP-2 Weather Reports


Display with metric or nautical units.
time (UTC)temp
F
wind
direction
speed
MPH
gust
MPH
rain 1hr
in
rain 24hr
in
rain mn
in
humidity
%
barometer
mb
20220525231705 52 202 16.0 20.0 0.00 0.00 0.01 79 1004.3
20220525231201 52 202 15.0 17.0 0.00 0.00 0.01 78 1004.3
20220525230655 52 211 18.0 18.0 0.00 0.00 0.01 77 1004.4
20220525230150 52 198 11.0 15.0 0.00 0.00 0.01 77 1004.5
20220525225645 53 189 12.0 17.0 0.00 0.00 0.01 78 1004.4
20220525225139 53 189 12.0 17.0 0.00 0.00 0.01 78 1004.5
20220525224635 53 198 13.0 20.0 0.00 0.00 0.01 77 1004.7
20220525224129 52 180 10.0 15.0 0.00 0.00 0.01 76 1004.6
20220525223624 52 202 11.0 15.0 0.00 0.00 0.01 76 1004.8
20220525223119 52 184 11.0 22.0 0.00 0.00 0.01 76 1004.7
20220525222613 53 184 17.0 17.0 0.00 0.00 0.01 76 1004.8
20220525222109 53 207 10.0 13.0 0.00 0.00 0.01 76 1004.9
20220525221603 53 180 9.0 13.0 0.00 0.00 0.01 75 1004.8
20220525221058 53 193 7.0 12.0 0.00 0.00 0.01 75 1004.9
20220525220553 53 180 4.0 6.0 0.00 0.00 0.01 73 1004.9
20220525220047 53 189 7.0 9.0 0.00 0.00 0.01 73 1005.0
20220525215543 53 211 14.0 15.0 0.00 0.00 0.01 73 1004.9
20220525215037 53 220 7.0 16.0 0.00 0.00 0.01 72 1005.2
20220525214532 53 225 13.0 26.0 0.00 0.00 0.01 73 1005.3
20220525214027 53 189 21.0 21.0 0.00 0.00 0.01 74 1005.4
20220525213521 53 198 9.0 14.0 0.00 0.00 0.00 76 1005.4
20220525213017 53 175 9.0 13.0 0.00 0.00 0.00 80 1005.4
20220525212511 52 180 9.0 16.0 0.00 0.00 0.00 82 1005.5
20220525212006 51 180 11.0 13.0 0.00 0.00 0.00 83 1005.6
20220525211501 51 180 5.0 6.0 0.00 0.00 0.00 81 1005.6
20220525210955 51 157 4.0 7.0 0.00 0.00 0.00 81 1005.8
20220525210451 51 144 4.0 8.0 0.00 0.00 0.00 81 1005.8
20220525205945 50 148 7.0 7.0 0.00 0.00 0.00 81 1005.9
20220525205440 50 148 4.0 7.0 0.00 0.00 0.00 84 1005.8
20220525204935 50 144 6.0 8.0 0.00 0.00 0.00 81 1005.9
20220525204429 50 148 5.0 7.0 0.00 0.00 0.00 80 1006.0
20220525203925 50 135 5.0 13.0 0.00 0.00 0.00 79 1006.0
20220525203419 50 166 6.0 8.0 0.00 0.00 0.00 80 1006.1
20220525202914 50 166 6.0 9.0 0.00 0.00 0.00 79 1006.1
20220525202409 51 162 5.0 8.0 0.00 0.00 0.00 79 1006.0
20220525201904 51 135 7.0 8.0 0.00 0.00 0.00 79 1006.1
20220525201359 51 139 7.0 10.0 0.00 0.00 0.00 79 1006.2
20220525200853 50 144 9.0 10.0 0.00 0.00 0.00 80 1006.2
20220525200348 50 144 5.0 9.0 0.00 0.00 0.00 79 1006.3
20220525195843 50 171 6.0 7.0 0.00 0.00 0.00 79 1006.3
20220525195337 50 157 6.0 8.0 0.00 0.00 0.00 78 1006.4
20220525194833 50 153 4.0 8.0 0.00 0.00 0.00 77 1006.3
20220525194327 50 139 7.0 7.0 0.00 0.00 0.00 77 1006.3
20220525193822 50 171 4.0 9.0 0.00 0.00 0.00 77 1006.4
20220525193317 50 144 7.0 8.0 0.00 0.00 0.00 76 1006.5
20220525192812 51 148 5.0 7.0 0.00 0.00 0.00 76 1006.5
20220525192307 51 135 6.0 6.0 0.00 0.00 0.00 76 1006.5
20220525191801 51 175 7.0 7.0 0.00 0.00 0.00 75 1006.6
20220525190751 51 180 6.0 13.0 0.00 0.00 0.00 75 1006.7
20220525190246 51 166 9.0 11.0 0.00 0.00 0.00 75 1006.7
20220525185741 51 166 7.0 10.0 0.00 0.00 0.00 74 1006.7
20220525185235 51 148 6.0 10.0 0.00 0.00 0.00 74 1006.7
20220525184730 52 175 8.0 11.0 0.00 0.00 0.00 74 1006.8
20220525184225 52 175 16.0 16.0 0.00 0.00 0.00 73 1007.0
20220525183720 52 180 6.0 9.0 0.00 0.00 0.00 72 1006.9
20220525183215 52 180 6.0 11.0 0.00 0.00 0.00 72 1006.9
20220525182709 52 175 8.0 10.0 0.00 0.00 0.00 72 1007.0
20220525182204 52 180 12.0 12.0 0.00 0.00 0.00 71 1007.1
20220525181659 53 180 7.0 11.0 0.00 0.00 0.00 71 1007.0
20220525181154 53 171 8.0 14.0 0.00 0.00 0.00 71 1007.1
20220525180649 53 180 8.0 11.0 0.00 0.00 0.00 71 1007.3
20220525180143 53 171 6.0 12.0 0.00 0.00 0.00 71 1007.3
20220525175638 53 189 12.0 15.0 0.00 0.00 0.00 70 1007.3
20220525175133 53 184 14.0 14.0 0.00 0.00 0.00 69 1007.3
20220525174628 54 180 9.0 14.0 0.00 0.00 0.00 70 1007.4
20220525174123 54 180 13.0 13.0 0.00 0.00 0.00 71 1007.5
20220525173617 54 180 7.0 12.0 0.00 0.00 0.00 71 1007.7
20220525173112 54 207 10.0 13.0 0.00 0.00 0.00 72 1007.6
20220525172607 54 184 10.0 13.0 0.00 0.00 0.00 72 1007.5
20220525172102 54 220 12.0 12.0 0.00 0.00 0.02 72 1007.6
20220525171557 53 225 7.0 10.0 0.00 0.00 0.02 75 1007.5
20220525171051 52 180 5.0 11.0 0.00 0.00 0.02 75 1007.6
20220525170546 52 180 7.0 13.0 0.00 0.00 0.02 74 1007.6
20220525170041 52 220 7.0 14.0 0.00 0.00 0.02 74 1007.7
20220525165536 51 180 8.0 11.0 0.00 0.00 0.02 73 1007.7
20220525165031 51 171 6.0 10.0 0.00 0.00 0.02 71 1007.5
20220525164525 52 180 8.0 11.0 0.00 0.00 0.02 69 1007.6
20220525164020 53 216 11.0 13.0 0.00 0.00 0.02 67 1007.7
20220525163515 54 180 11.0 32.0 0.00 0.00 0.02 66 1007.9
20220525163010 54 225 13.0 13.0 0.00 0.00 0.02 65 1007.9
20220525162505 55 211 9.0 12.0 0.00 0.00 0.02 66 1007.7
20220525161959 55 216 10.0 10.0 0.00 0.00 0.02 65 1007.6
20220525161454 54 225 11.0 12.0 0.00 0.00 0.02 68 1007.6
20220525160949 53 225 12.0 14.0 0.00 0.00 0.02 69 1007.7
20220525160444 53 220 12.0 19.0 0.00 0.00 0.02 69 1007.7
20220525155939 53 225 14.0 19.0 0.00 0.00 0.02 68 1007.6
20220525155433 52 225 7.0 10.0 0.00 0.00 0.02 69 1007.7
20220525154928 52 225 11.0 17.0 0.00 0.00 0.02 68 1007.6
20220525154423 52 189 9.0 16.0 0.00 0.00 0.02 68 1007.6
20220525153918 52 211 9.0 16.0 0.00 0.00 0.02 66 1007.8
20220525153413 53 225 12.0 16.0 0.00 0.00 0.02 64 1007.7
20220525152907 53 225 17.0 26.0 0.00 0.00 0.02 62 1007.7
20220525152402 54 211 16.0 25.0 0.00 0.00 0.02 61 1007.6
20220525151857 54 202 19.0 23.0 0.00 0.00 0.02 61 1007.7
20220525151352 55 225 15.0 22.0 0.00 0.00 0.02 63 1007.8
20220525150847 55 225 21.0 26.0 0.00 0.00 0.02 62 1007.7
20220525150341 55 225 24.0 24.0 0.00 0.00 0.02 63 1007.9
20220525145836 55 225 19.0 20.0 0.00 0.00 0.02 63 1007.9
20220525145331 55 225 11.0 20.0 0.00 0.00 0.02 64 1007.9
20220525144826 55 184 13.0 20.0 0.00 0.00 0.02 63 1008.0
20220525144321 55 225 15.0 21.0 0.00 0.00 0.02 62 1007.9
20220525143815 55 225 16.0 22.0 0.00 0.00 0.02 63 1007.8
20220525143310 55 225 19.0 19.0 0.00 0.00 0.02 65 1007.8
20220525142805 55 216 11.0 17.0 0.00 0.00 0.02 67 1007.7
20220525142300 54 220 9.0 18.0 0.00 0.00 0.02 67 1007.8
20220525141755 54 193 9.0 17.0 0.00 0.00 0.02 65 1007.7
20220525141249 55 225 14.0 20.0 0.00 0.00 0.02 64 1007.9
20220525140744 55 225 16.0 21.0 0.00 0.00 0.02 63 1007.8
20220525140239 56 225 18.0 34.0 0.00 0.00 0.02 62 1007.7
20220525135734 56 225 13.0 47.0 0.00 0.00 0.02 64 1007.8
20220525135229 56 234 22.0 24.0 0.00 0.00 0.02 64 1007.7
20220525134723 57 220 26.0 32.0 0.00 0.00 0.02 63 1007.7
20220525134218 57 225 20.0 24.0 0.00 0.00 0.02 61 1007.8
20220525133713 57 211 18.0 39.0 0.00 0.00 0.02 60 1007.7
20220525133208 57 180 24.0 30.0 0.00 0.00 0.02 60 1007.6
20220525132703 57 175 24.0 31.0 0.00 0.00 0.02 62 1007.7
20220525132157 56 180 29.0 29.0 0.00 0.00 0.02 64 1007.6
20220525131652 56 180 16.0 40.0 0.00 0.00 0.02 66 1007.8
20220525131147 56 180 14.0 26.0 0.00 0.00 0.02 64 1007.8
20220525130642 56 180 22.0 29.0 0.00 0.00 0.02 66 1007.8
20220525130137 56 193 15.0 27.0 0.00 0.00 0.02 64 1007.7
20220525125631 57 180 15.0 23.0 0.00 0.00 0.02 62 1007.8
20220525125126 58 180 21.0 24.0 0.00 0.00 0.02 61 1007.7
20220525124621 59 180 18.0 22.0 0.00 0.00 0.02 59 1007.6
20220525124116 59 180 15.0 21.0 0.00 0.00 0.02 60 1007.6
20220525123611 59 243 22.0 24.0 0.00 0.00 0.02 54 1007.6
20220525123105 59 216 14.0 29.0 0.00 0.00 0.02 57 1007.7
20220525122600 59 225 18.0 25.0 0.00 0.00 0.02 57 1007.6
20220525122055 60 225 15.0 23.0 0.00 0.00 0.02 57 1007.6
20220525121550 59 198 22.0 27.0 0.00 0.00 0.02 58 1007.7
20220525121045 59 225 13.0 23.0 0.00 0.00 0.02 60 1007.5
20220525120539 59 202 22.0 24.0 0.00 0.00 0.02 59 1007.6
20220525120034 59 180 24.0 24.0 0.00 0.00 0.02 61 1007.5
20220525115529 59 216 22.0 24.0 0.00 0.00 0.02 61 1007.4
20220525115024 58 189 15.0 28.0 0.00 0.00 0.02 62 1007.5
20220525114519 57 234 19.0 22.0 0.00 0.00 0.02 64 1007.4
20220525114013 57 220 18.0 25.0 0.00 0.00 0.02 63 1007.7
20220525113508 57 180 21.0 23.0 0.00 0.00 0.02 63 1007.5
20220525113003 57 225 19.0 24.0 0.00 0.00 0.02 62 1007.6
20220525112458 57 225 15.0 23.0 0.00 0.00 0.02 64 1007.6
20220525111953 57 225 20.0 30.0 0.00 0.00 0.02 65 1007.7
20220525111447 57 220 16.0 19.0 0.00 0.00 0.02 70 1007.7
20220525110942 56 225 17.0 26.0 0.00 0.00 0.02 68 1007.7
20220525110437 55 225 23.0 23.0 0.00 0.00 0.02 70 1007.7
20220525105932 54 225 13.0 28.0 0.00 0.00 0.02 70 1007.7
20220525105427 53 243 15.0 19.0 0.00 0.00 0.02 71 1007.7
20220525104921 53 275 3.0 17.0 0.00 0.00 0.02 70 1007.6
20220525104416 53 328 4.0 9.0 0.00 0.00 0.02 68 1007.7
20220525103911 53 270 12.0 18.0 0.00 0.00 0.02 66 1007.7
20220525103406 54 306 12.0 24.0 0.00 0.00 0.02 70 1007.8
20220525102901 54 252 19.0 19.0 0.00 0.00 0.02 74 1007.5
20220525102355 54 234 8.0 21.0 0.00 0.00 0.02 74 1007.6
20220525101850 54 225 19.0 23.0 0.00 0.00 0.02 71 1007.5
20220525101345 55 193 20.0 23.0 0.00 0.00 0.02 69 1007.4
20220525100840 56 225 21.0 25.0 0.00 0.00 0.02 68 1007.4
20220525100335 56 216 17.0 22.0 0.00 0.00 0.02 72 1007.5
20220525095829 55 225 20.0 26.0 0.00 0.00 0.02 70 1007.4
20220525095324 55 225 19.0 22.0 0.00 0.00 0.02 70 1007.4
20220525094819 55 189 22.0 23.0 0.00 0.00 0.02 70 1007.4
20220525094314 55 225 20.0 26.0 0.00 0.00 0.02 70 1007.4
20220525093809 55 211 15.0 28.0 0.00 0.00 0.02 72 1007.5
20220525093303 55 225 11.0 24.0 0.00 0.00 0.02 72 1007.4
20220525092758 55 211 16.0 27.0 0.00 0.00 0.02 72 1007.4
20220525092253 55 225 15.0 24.0 0.00 0.00 0.02 73 1007.3
20220525091748 55 225 16.0 19.0 0.00 0.00 0.02 74 1007.4
20220525091243 55 225 21.0 26.0 0.00 0.00 0.02 73 1007.3
20220525090737 55 225 12.0 21.0 0.00 0.00 0.02 74 1007.3
20220525090232 54 202 16.0 25.0 0.00 0.00 0.02 74 1007.3
20220525085727 54 225 20.0 23.0 0.00 0.00 0.02 74 1007.2
20220525085222 54 211 11.0 18.0 0.00 0.00 0.02 76 1007.2
20220525084717 54 225 10.0 16.0 0.00 0.00 0.02 75 1007.3
20220525084211 54 243 8.0 16.0 0.00 0.00 0.02 75 1007.2
20220525083706 53 211 13.0 21.0 0.00 0.00 0.02 75 1007.2
20220525083201 54 225 15.0 23.0 0.00 0.00 0.02 74 1007.0
20220525082656 54 225 14.0 22.0 0.00 0.00 0.02 75 1007.0
20220525082151 54 225 13.0 26.0 0.00 0.00 0.02 75 1007.0
20220525081646 54 234 9.0 17.0 0.00 0.00 0.02 75 1006.9
20220525081140 53 234 9.0 20.0 0.00 0.00 0.02 75 1006.8
20220525080635 53 225 14.0 20.0 0.00 0.00 0.02 75 1006.9
20220525080130 53 225 13.0 18.0 0.00 0.00 0.02 75 1006.8
20220525075625 53 225 15.0 18.0 0.00 0.00 0.02 75 1006.8
20220525075120 53 225 17.0 20.0 0.00 0.00 0.02 74 1006.7
20220525074614 53 225 19.0 19.0 0.00 0.00 0.02 74 1006.7
20220525074109 53 234 11.0 14.0 0.00 0.00 0.02 75 1006.7
20220525073604 53 238 19.0 20.0 0.00 0.00 0.02 74 1006.7
20220525073059 53 225 14.0 22.0 0.00 0.00 0.02 74 1006.5
20220525072554 53 225 17.0 21.0 0.00 0.00 0.02 74 1006.4
20220525072048 53 225 17.0 23.0 0.00 0.00 0.02 74 1006.5
20220525071543 53 234 19.0 19.0 0.00 0.00 0.02 73 1006.3
20220525071038 53 252 21.0 25.0 0.00 0.00 0.02 73 1006.3
20220525070533 53 234 15.0 21.0 0.00 0.00 0.02 73 1006.3
20220525070028 53 243 17.0 20.0 0.00 0.00 0.02 72 1006.1
20220525065522 54 225 23.0 26.0 0.00 0.00 0.02 72 1006.1
20220525065017 54 225 14.0 28.0 0.00 0.00 0.02 73 1006.0
20220525064512 54 225 19.0 24.0 0.00 0.00 0.02 74 1006.0
20220525064007 53 225 17.0 24.0 0.00 0.00 0.02 75 1005.9
20220525063502 53 265 14.0 21.0 0.00 0.00 0.02 75 1005.9
20220525062956 53 225 16.0 25.0 0.00 0.00 0.02 75 1005.9
20220525062451 52 180 21.0 24.0 0.00 0.00 0.02 75 1005.7
20220525061946 52 238 22.0 27.0 0.00 0.00 0.02 75 1005.9
20220525061441 52 225 12.0 19.0 0.00 0.00 0.02 76 1005.7
20220525060936 52 225 12.0 21.0 0.00 0.00 0.02 76 1005.8
20220525060430 52 225 22.0 24.0 0.00 0.00 0.02 76 1005.7
20220525055925 51 225 17.0 24.0 0.00 0.00 0.02 78 1005.5
20220525055420 51 225 19.0 27.0 0.00 0.00 0.02 78 1005.6
20220525054915 51 225 12.0 18.0 0.00 0.00 0.02 78 1005.5
20220525054410 51 225 19.0 26.0 0.00 0.00 0.02 78 1005.5
20220525053904 51 216 15.0 24.0 0.00 0.00 0.02 78 1005.5
20220525053359 51 225 23.0 27.0 0.00 0.00 0.02 79 1005.4
20220525052854 51 193 11.0 19.0 0.00 0.00 0.02 78 1005.3
20220525052349 51 225 14.0 20.0 0.00 0.00 0.02 78 1005.2
20220525051844 51 225 23.0 25.0 0.00 0.00 0.02 79 1005.0
20220525051338 52 225 9.0 17.0 0.00 0.00 0.02 79 1005.0
20220525050833 52 243 14.0 18.0 0.00 0.00 0.02 79 1005.0
20220525050328 52 234 13.0 21.0 0.00 0.00 0.02 79 1004.9
20220525045823 52 225 16.0 21.0 0.00 0.00 0.02 81 1004.9
20220525045318 52 234 16.0 24.0 0.00 0.00 0.02 81 1004.8
20220525044812 52 225 19.0 22.0 0.00 0.00 0.02 79 1004.8
20220525044307 52 220 22.0 22.0 0.00 0.00 0.02 78 1004.8
20220525043802 52 184 15.0 24.0 0.00 0.00 0.02 79 1004.8
20220525043258 52 225 19.0 19.0 0.00 0.00 0.02 81 1004.7
20220525042752 52 243 16.0 27.0 0.00 0.00 0.02 81 1004.7
20220525042246 52 216 17.0 24.0 0.00 0.00 0.02 80 1004.8
20220525041741 52 225 18.0 20.0 0.00 0.00 0.02 81 1004.7
20220525041236 52 234 12.0 17.0 0.00 0.00 0.02 81 1004.7
20220525040731 52 207 12.0 17.0 0.00 0.00 0.02 83 1004.7
20220525040226 51 198 12.0 19.0 0.00 0.00 0.02 82 1004.7
20220525035721 51 184 12.0 23.0 0.00 0.00 0.02 82 1004.7
20220525035215 51 225 14.0 15.0 0.00 0.00 0.02 83 1004.6
20220525034710 51 225 10.0 14.0 0.00 0.00 0.02 82 1004.7
20220525034205 51 225 11.0 16.0 0.00 0.00 0.02 82 1004.7
20220525033700 51 216 13.0 17.0 0.00 0.00 0.02 83 1004.6
20220525033154 51 216 11.0 23.0 0.00 0.00 0.02 82 1004.6
20220525032649 51 220 14.0 15.0 0.00 0.00 0.02 80 1004.4
20220525032144 52 225 13.0 19.0 0.00 0.00 0.02 82 1004.4
20220525031639 52 211 9.0 25.0 0.00 0.00 0.02 81 1004.5
20220525031134 51 225 19.0 19.0 0.00 0.00 0.02 82 1004.5
20220525030629 51 202 14.0 19.0 0.00 0.00 0.02 84 1004.4
20220525030123 51 225 9.0 15.0 0.00 0.00 0.02 82 1004.5
20220525025618 51 202 12.0 16.0 0.00 0.00 0.02 78 1004.2
20220525025113 52 184 14.0 15.0 0.00 0.00 0.02 80 1004.3
20220525024608 52 220 12.0 15.0 0.00 0.00 0.02 80 1004.3
20220525024103 52 216 14.0 19.0 0.00 0.00 0.02 81 1004.3
20220525023557 52 225 9.0 18.0 0.00 0.00 0.02 81 1004.4
20220525023052 52 198 10.0 17.0 0.00 0.00 0.02 81 1004.4
20220525022547 52 207 20.0 20.0 0.00 0.00 0.02 80 1004.4
20220525022042 52 193 8.0 20.0 0.00 0.00 0.02 80 1004.4
20220525021537 52 189 12.0 17.0 0.00 0.00 0.02 80 1004.4
20220525021031 52 193 11.0 14.0 0.00 0.00 0.02 80 1004.3
20220525020526 52 225 8.0 14.0 0.00 0.00 0.02 80 1004.2
20220525020021 52 207 13.0 14.0 0.00 0.00 0.02 80 1004.3
20220525015516 52 202 11.0 13.0 0.00 0.00 0.02 81 1004.2
20220525015011 52 220 16.0 17.0 0.00 0.00 0.02 81 1004.2
20220525014505 52 198 8.0 15.0 0.00 0.00 0.02 80 1004.3
20220525014000 52 220 15.0 15.0 0.00 0.00 0.02 80 1004.2
20220525013455 52 216 16.0 16.0 0.00 0.00 0.02 82 1004.2
20220525012950 52 180 12.0 16.0 0.00 0.00 0.02 81 1004.1
20220525012445 51 211 13.0 14.0 0.00 0.00 0.02 83 1004.1
20220525011939 51 180 10.0 12.0 0.00 0.00 0.02 80 1004.0
20220525011434 52 202 9.0 10.0 0.00 0.00 0.02 80 1003.9
20220525010929 52 211 10.0 15.0 0.00 0.00 0.02 80 1004.0
20220525010424 52 202 8.0 12.0 0.00 0.00 0.02 81 1003.9
20220525005919 53 220 8.0 14.0 0.00 0.00 0.02 80 1003.9
20220525005413 53 180 12.0 14.0 0.00 0.00 0.02 81 1003.8
20220525004403 53 207 10.0 15.0 0.00 0.00 0.02 81 1003.9
20220525003858 53 184 6.0 11.0 0.00 0.00 0.02 81 1003.9
20220525003353 53 193 6.0 13.0 0.00 0.00 0.02 82 1003.9
20220525002847 53 225 7.0 14.0 0.00 0.00 0.02 82 1003.7
20220525002342 53 225 11.0 17.0 0.00 0.00 0.02 82 1003.8
20220525001837 53 189 6.0 12.0 0.00 0.00 0.02 83 1003.8
20220525001332 53 189 10.0 13.0 0.00 0.00 0.02 84 1003.7
20220525000827 53 189 8.0 14.0 0.00 0.00 0.02 83 1003.8
20220525000321 53 193 11.0 15.0 0.00 0.00 0.02 84 1003.8
20220524235816 53 207 11.0 14.0 0.00 0.00 0.02 84 1003.7
20220524235311 53 184 11.0 15.0 0.00 0.00 0.02 85 1003.6
20220524234806 53 207 9.0 14.0 0.00 0.00 0.02 84 1003.6
20220524234301 53 216 10.0 10.0 0.00 0.00 0.02 84 1003.6
20220524233755 53 189 8.0 11.0 0.00 0.00 0.02 84 1003.6
20220524233250 53 198 10.0 11.0 0.00 0.00 0.02 84 1003.5
20220524232745 53 193 6.0 12.0 0.00 0.00 0.02 84 1003.6
20220524232240 52 220 5.0 12.0 0.00 0.00 0.02 85 1003.6